GW6871 Weather Reports


Display with metric or nautical units.
time (UTC)temp
F
wind
direction
speed
MPH
gust
MPH
rain 1hr
in
rain 24hr
in
rain mn
in
humidity
%
barometer
mb
20260505003546 72 164 0.0 1.0 0.00 0.03 0.03 87 1009.2
20260505003043 72 165 0.0 2.0 0.00 0.03 0.03 87 1009.2
20260505002543 72 85 0.0 0.0 0.00 0.03 0.03 88 1009.0
20260505002043 72 177 1.0 2.0 0.00 0.03 0.03 87 1008.7
20260505001540 72 173 1.0 2.0 0.00 0.03 0.03 87 1008.8
20260505001037 72 173 2.0 3.0 0.00 0.03 0.03 87 1008.9
20260505000535 72 183 1.0 2.0 0.00 0.03 0.03 88 1008.6
20260505000032 72 183 2.0 9.0 0.00 0.03 0.03 88 1008.6
20260504235528 72 167 2.0 4.0 0.00 0.03 0.03 88 1008.3
20260504235025 72 125 3.0 6.0 0.00 0.03 0.03 88 1008.1
20260504234522 72 168 3.0 6.0 0.00 0.03 0.03 88 1008.2
20260504234019 72 143 5.0 9.0 0.00 0.03 0.03 89 1008.3
20260504233514 72 188 2.0 6.0 0.00 0.03 0.03 89 1008.4
20260504233012 72 181 1.0 1.0 0.00 0.03 0.03 89 1008.5
20260504232508 72 147 2.0 2.0 0.00 0.03 0.03 89 1008.2
20260504232006 72 184 2.0 6.0 0.00 0.03 0.03 89 1008.0
20260504231502 72 198 3.0 4.0 0.00 0.03 0.03 89 1008.0
20260504230959 72 158 2.0 3.0 0.00 0.03 0.03 89 1007.7
20260504230455 72 150 2.0 6.0 0.00 0.03 0.03 89 1008.0
20260504225954 72 135 1.0 2.0 0.00 0.03 0.03 89 1008.6
20260504225450 72 142 0.0 3.0 0.00 0.03 0.03 89 1009.2
20260504224948 72 172 1.0 3.0 0.00 0.03 0.03 89 1009.3
20260504224444 72 187 1.0 2.0 0.00 0.03 0.03 89 1009.4
20260504223941 72 222 0.0 2.0 0.00 0.03 0.03 89 1009.6
20260504223437 72 177 0.0 2.0 0.00 0.03 0.03 89 1009.9
20260504222933 72 166 2.0 2.0 0.00 0.03 0.03 89 1010.3
20260504222431 72 230 1.0 3.0 0.00 0.03 0.03 89 1010.3
20260504221928 72 153 3.0 6.0 0.00 0.03 0.03 89 1009.7
20260504221425 72 151 1.0 2.0 0.00 0.03 0.03 89 1010.2
20260504220922 72 77 0.0 1.0 0.00 0.03 0.03 89 1010.4
20260504220419 71 79 0.0 1.0 0.00 0.03 0.03 89 1010.4
20260504215916 71 15 0.0 1.0 0.07 0.03 0.03 89 1010.3
20260504215413 71 343 1.0 2.0 0.07 0.03 0.03 89 1010.8
20260504214909 71 20 1.0 3.0 0.00 0.02 0.02 89 1010.4
20260504214406 71 77 0.0 2.0 0.00 0.02 0.02 89 1010.7
20260504213902 71 353 0.0 2.0 0.00 0.02 0.02 89 1011.0
20260504213358 71 22 0.0 1.0 0.05 0.02 0.02 89 1011.3
20260504212856 71 289 2.0 2.0 0.05 0.02 0.02 88 1011.1
20260504212351 71 15 0.0 2.0 0.00 0.01 0.01 88 1011.2
20260504211850 71 326 1.0 3.0 0.00 0.01 0.01 88 1011.1
20260504211345 71 337 0.0 2.0 0.00 0.01 0.01 88 1011.4
20260504210843 71 18 0.0 2.0 0.00 0.01 0.01 88 1011.4
20260504210340 71 322 1.0 1.0 0.00 0.01 0.01 88 1011.3
20260504205837 71 324 1.0 3.0 0.00 0.01 0.01 88 1011.4
20260504205335 71 343 2.0 6.0 0.00 0.01 0.01 88 1011.6
20260504204833 71 280 1.0 3.0 0.00 0.01 0.01 87 1011.7
20260504204331 71 32 3.0 6.0 0.00 0.01 0.01 87 1011.8
20260504203830 71 322 1.0 2.0 0.00 0.01 0.01 87 1011.7
20260504203326 71 305 1.0 4.0 0.00 0.01 0.01 87 1012.1
20260504202822 71 291 1.0 4.0 0.00 0.01 0.01 87 1011.8
20260504202320 71 315 1.0 3.0 0.00 0.01 0.01 87 1011.9
20260504201816 72 347 1.0 3.0 0.00 0.01 0.01 87 1011.8
20260504201314 71 317 1.0 4.0 0.07 0.01 0.01 87 1011.6
20260504200811 72 336 1.0 6.0 0.07 0.01 0.01 87 1011.9
20260504200307 72 78 2.0 6.0 0.00 0.00 0.00 87 1011.7
20260504195803 72 308 2.0 3.0 0.00 0.00 0.00 87 1011.7
20260504195259 71 288 3.0 7.0 0.00 0.00 0.00 86 1011.7
20260504194756 71 304 2.0 9.0 0.00 0.00 0.00 86 1012.0
20260504194253 72 306 2.0 8.0 0.00 0.00 0.00 86 1011.9
20260504193749 72 8 7.0 10.0 0.00 0.00 0.00 85 1011.7
20260504193246 73 39 10.0 16.0 0.00 0.00 0.00 83 1011.7
20260504192745 73 295 6.0 15.0 0.00 0.00 0.00 82 1011.8
20260504192242 73 230 2.0 10.0 0.00 0.00 0.00 81 1011.5
20260504191741 74 19 2.0 11.0 0.00 0.00 0.00 80 1011.6
20260504191237 74 344 2.0 9.0 0.00 0.00 0.00 81 1011.4
20260504190733 74 229 1.0 7.0 0.00 0.00 0.00 80 1011.5
20260504190230 75 359 3.0 8.0 0.00 0.00 0.00 81 1011.5
20260504185726 75 214 3.0 6.0 0.00 0.00 0.00 82 1011.3
20260504185223 75 16 5.0 11.0 0.00 0.00 0.00 84 1011.3
20260504184719 75 332 4.0 8.0 0.00 0.00 0.00 85 1011.1
20260504184215 75 15 3.0 10.0 0.00 0.00 0.00 86 1011.2
20260504183711 75 307 1.0 9.0 0.00 0.00 0.00 87 1011.0
20260504183208 75 329 1.0 1.0 0.00 0.00 0.00 87 1010.6
20260504182706 75 317 0.0 1.0 0.00 2.48 2.48 87 1010.4
20260504182203 75 321 0.0 2.0 0.00 2.48 2.48 88 1010.5
20260504181701 75 311 1.0 1.0 0.00 2.48 2.48 88 1010.6
20260504181158 75 224 0.0 1.0 0.00 2.48 2.48 88 1010.4
20260504180657 75 181 0.0 0.0 0.00 2.48 2.48 88 1010.5
20260504180155 75 184 0.0 1.0 0.00 2.48 2.48 88 1010.3
20260504175652 75 159 0.0 1.0 0.00 2.48 2.48 88 1010.4
20260504175149 75 155 0.0 0.0 0.00 2.48 2.48 88 1010.6
20260504174647 75 155 0.0 0.0 0.00 2.48 2.48 87 1010.7
20260504174143 76 155 0.0 0.0 0.00 2.48 2.48 87 1010.5
20260504173640 76 155 0.0 1.0 0.00 2.48 2.48 87 1010.4
20260504173138 76 155 0.0 1.0 0.00 2.48 2.48 87 1010.6
20260504172635 76 164 0.0 0.0 0.00 2.48 2.48 87 1010.5
20260504172131 76 164 0.0 0.0 0.00 2.48 2.48 87 1010.5
20260504171627 76 164 0.0 0.0 0.00 2.48 2.48 86 1010.5
20260504171125 76 164 0.0 0.0 0.00 2.48 2.48 86 1010.2
20260504170621 76 164 0.0 0.0 0.00 2.48 2.48 86 1010.2
20260504170119 76 164 0.0 1.0 0.00 2.48 2.48 86 1010.2
20260504151004 75 174 2.0 3.0 0.00 2.48 2.48 83 1009.8
20260504150501 75 172 1.0 3.0 0.00 2.48 2.48 84 1009.6
20260504140927 75 187 1.0 7.0 0.00 2.48 2.48 81 1008.0
20260504140424 75 187 2.0 7.0 0.00 2.48 2.48 81 1008.0
20260504130349 74 177 3.0 8.0 0.00 2.48 2.48 84 1008.1
20260504120311 74 167 2.0 4.0 0.05 2.48 2.48 90 1007.1
20260504110236 75 304 7.0 15.0 2.03 0.35 0.35 84 1006.3
20260504100159 93 184 1.0 2.0 0.00 0.00 0.00 63 1006.3
20260504090122 96 193 0.0 2.0 0.00 0.00 0.00 55 1007.2
20260504081558 97 195 0.0 2.0 0.00 0.00 0.00 56 1008.3
20260504081054 99 182 2.0 2.0 0.00 0.00 0.00 51 1008.3
20260504080551 98 290 2.0 3.0 0.00 0.00 0.00 51 1008.4
20260504050403 94 164 2.0 3.0 0.00 0.00 0.00 55 1010.6
20260504045900 95 164 2.0 2.0 0.00 0.00 0.00 52 1010.4
20260504045355 94 160 1.0 2.0 0.00 0.00 0.00 56 1010.7
20260504044853 93 127 2.0 3.0 0.00 0.00 0.00 56 1010.5
20260504044350 93 263 0.0 3.0 0.00 0.00 0.00 57 1010.3
20260504043847 93 159 0.0 3.0 0.00 0.00 0.00 57 1010.5
20260504043344 94 222 0.0 1.0 0.00 0.00 0.00 57 1010.4
20260504042841 92 156 0.0 2.0 0.00 0.00 0.00 58 1010.4
20260504042338 92 184 4.0 4.0 0.00 0.00 0.00 57 1010.3
20260504041834 92 299 2.0 3.0 0.00 0.00 0.00 58 1010.4
20260504041330 91 165 2.0 6.0 0.00 0.00 0.00 60 1010.5
20260504040826 92 182 3.0 4.0 0.00 0.00 0.00 58 1010.5
20260504040324 91 178 1.0 2.0 0.00 0.00 0.00 59 1010.5
20260504035820 89 227 2.0 2.0 0.00 0.00 0.00 61 1010.5
20260504035318 90 179 4.0 6.0 0.00 0.00 0.00 62 1010.2
20260504034815 90 178 1.0 3.0 0.00 0.00 0.00 63 1010.5
20260504034312 91 204 1.0 2.0 0.00 0.00 0.00 61 1010.3
20260504033809 90 174 2.0 2.0 0.00 0.00 0.00 61 1010.4
20260504033307 89 147 2.0 4.0 0.00 0.00 0.00 63 1010.2
20260504032803 89 148 2.0 3.0 0.00 0.00 0.00 64 1010.4
20260504032300 90 171 1.0 2.0 0.00 0.00 0.00 63 1010.0
20260504031757 89 158 2.0 3.0 0.00 0.00 0.00 65 1010.0
20260504031255 89 160 1.0 4.0 0.00 0.00 0.00 64 1010.0
20260504030750 89 158 2.0 2.0 0.00 0.00 0.00 63 1010.1
20260504030248 88 168 0.0 3.0 0.00 0.00 0.00 65 1009.9
20260504025744 88 158 2.0 2.0 0.00 0.00 0.00 65 1010.0
20260504025241 88 168 0.0 4.0 0.00 0.00 0.00 66 1009.7
20260504024738 89 251 0.0 4.0 0.00 0.00 0.00 67 1009.9
20260504024234 88 85 0.0 1.0 0.00 0.00 0.00 67 1009.9
20260504023731 87 146 0.0 2.0 0.00 0.00 0.00 68 1009.7
20260504023227 87 171 0.0 2.0 0.00 0.00 0.00 69 1009.7
20260504022724 87 145 1.0 2.0 0.00 0.00 0.00 71 1009.6
20260504022220 87 184 0.0 3.0 0.00 0.00 0.00 71 1009.4
20260504021717 86 196 0.0 1.0 0.00 0.00 0.00 73 1009.4
20260504021215 86 167 1.0 2.0 0.00 0.00 0.00 74 1009.5
20260504020711 86 185 1.0 2.0 0.00 0.00 0.00 74 1009.4
20260504020207 85 198 1.0 3.0 0.00 0.00 0.00 74 1009.2
20260504015704 85 189 1.0 1.0 0.00 0.00 0.00 75 1009.2
20260504015200 85 175 0.0 2.0 0.00 0.00 0.00 76 1009.2
20260504014656 84 181 1.0 2.0 0.00 0.00 0.00 78 1009.4
20260504014153 83 172 1.0 2.0 0.00 0.00 0.00 78 1009.1
20260504013651 84 173 1.0 4.0 0.00 0.00 0.00 78 1009.0
20260504013148 84 191 1.0 2.0 0.00 0.00 0.00 77 1008.7
20260504012645 83 117 1.0 2.0 0.00 0.00 0.00 79 1008.6
20260504012143 83 216 2.0 3.0 0.00 0.00 0.00 80 1008.5
20260504011639 83 146 1.0 2.0 0.00 0.00 0.00 80 1008.3
20260504011136 82 174 1.0 2.0 0.00 0.00 0.00 81 1007.9
20260504010632 82 186 2.0 3.0 0.00 0.00 0.00 81 1007.9
20260504010128 82 169 0.0 2.0 0.00 0.00 0.00 82 1007.9
20260504005625 81 148 1.0 3.0 0.00 0.00 0.00 83 1008.1
20260504005122 81 120 0.0 4.0 0.00 0.00 0.00 83 1008.0
20260504004620 80 173 0.0 4.0 0.00 0.00 0.00 84 1007.8
20260504004117 80 111 2.0 3.0 0.00 0.00 0.00 84 1007.8